Left ArrowRight Arrow

44.89941, -97.11507

Hourly Observations for June 19, 2024

Temp ( °F °C ) Dew Point ( °F °C ) Humidity (%) Winds ( mph kmh ) Pressure ( in mb ) Visibility ( mi km ) Precip ( " mm )
12:53 am 00:53 Mostly Clear 56 13.3 52 11.1 87 87 NW 8 13 29.99 1016 10 16 0.00 0.00
1:53 am 01:53 Mostly Clear 56 13.3 52 11.1 87 87 WNW 7 11 30.01 1016 10 16 0.00 0.00
2:53 am 02:53 Clear 55 12.8 52 11.1 89 89 W 6 9 30.04 1017 10 16 0.00 0.00
3:35 am 03:35 Mostly Cloudy 55 12.8 53 11.7 93 93 WNW 7 11 30.06 1018 10 16 0.00 0.00
3:53 am 03:53 Mostly Cloudy 56 13.3 53 11.7 90 90 WNW 9 15 30.08 1019 10 16 0.00 0.00
4:03 am 04:03 Mostly Cloudy 55 12.8 52 11.1 89 89 NW 13 20 30.07 1018 10 16 0.00 0.00
4:15 am 04:15 Mostly Cloudy 55 12.8 52 11.1 89 89 NNW 16 26 30.08 1019 10 16 0.00 0.00
4:53 am 04:53 Cloudy 55 12.8 52 11.1 89 89 NW 9 15 30.12 1020 10 16 0.00 0.00
5:13 am 05:13 Mostly Cloudy 54 12.2 51 10.6 90 90 NW 6 9 30.14 1020 10 16 0.00 0.00
5:24 am 05:24 Partly Cloudy 53 11.7 50 10 89 89 NW 8 13 30.14 1021 10 16 0.00 0.00
5:53 am 05:53 Mostly Sunny 53 11.7 50 10 89 89 NW 6 9 30.16 1021 10 16 0.00 0.00
6:21 am 06:21 Mostly Sunny 53 11.7 51 10.6 93 93 NNW 7 11 30.17 1022 10 16 0.00 0.00
6:53 am 06:53 Partly Cloudy 54 12.2 51 10.6 90 90 NNW 8 13 30.19 1023 10 16 0.00 0.00
7:53 am 07:53 Sunny 57 13.9 52 11.1 83 83 N 10 17 30.22 1023 10 16 0.00 0.00
8:53 am 08:53 Mostly Sunny 57 13.9 51 10.6 80 80 NNW 12 19 30.25 1024 10 16 0.00 0.00
9:49 am 09:49 Mostly Cloudy 57 14 52 11 82 82 NW 7 11 30.26 1025 10 16 0.00 0.00
9:53 am 09:53 Mostly Cloudy 59 15 51 10.6 75 75 NW 8 13 30.28 1025 10 16 0.00 0.00
10:05 am 10:05 Partly Cloudy 59 15 50 10 72 72 NNW 6 9 30.26 1025 10 16 0.00 0.00
10:43 am 10:43 Mostly Cloudy 61 16.1 51 10.6 70 70 NNW 7 11 30.26 1025 10 16 0.00 0.00
10:53 am 10:53 Partly Cloudy 61 16.1 50 10 67 67 NW 7 11 30.29 1026 10 16 0.00 0.00
11:53 am 11:53 Partly Cloudy 62 16.7 50 10 65 65 Calm 30.30 1026 10 16 0.00 0.00
12:53 pm 12:53 Sunny 64 17.8 49 9.4 58 58 NNW 10 17 30.31 1026 10 16 0.00 0.00
1:53 pm 13:53 Sunny 66 18.9 50 10 56 56 NW 7 11 30.29 1026 10 16 0.00 0.00
2:53 pm 14:53 Sunny 68 20 50 10 53 53 VRB 3 6 30.29 1026 10 16 0.00 0.00
3:53 pm 15:53 Partly Cloudy 68 20 49 9.4 50 50 Calm 30.29 1026 10 16 0.00 0.00
4:53 pm 16:53 Partly Cloudy 69 20.6 51 10.6 53 53 E 8 13 30.28 1026 10 16 0.00 0.00
5:53 pm 17:53 Mostly Sunny 68 20 49 9.4 50 50 E 8 13 30.27 1025 10 16 0.00 0.00
6:53 pm 18:53 Sunny 68 20 50 10 53 53 E 7 11 30.28 1025 10 16 0.00 0.00
7:53 pm 19:53 Mostly Cloudy 65 18.3 50 10 58 58 ENE 10 17 30.27 1025 10 16 0.00 0.00
8:53 pm 20:53 Mostly Cloudy 64 17.8 50 10 60 60 ESE 5 7 30.29 1026 10 16 0.01 0.13
9:53 pm 21:53 Mostly Cloudy with Light Rain 63 17.2 51 10.6 65 65 ESE 6 9 30.29 1026 10 16 0.01 0.13
10:53 pm 22:53 Cloudy with Light Rain 61 16.1 53 11.7 75 75 E 6 9 30.29 1026 10 16 0.02 0.51
11:53 pm 23:53 Cloudy 61 16.1 54 12.2 78 78 ESE 5 7 30.32 1027 10 16 0.01 0.13

Powered by Vaisala Xweather